Decimomannu, Italy

4:35 AM CEST on October 17, 2017 (GMT +0200)
Decimomannu Mil

Weather History for LIED - April, 2013

Change the Weather History Date:

Wednesday, April 3, 2013

  Actual Average Record
Temperature  
Mean Temperature 56 °F -  
Max Temperature 66 °F 68 °F 78 °F (2011)
Min Temperature 45 °F 46 °F 39 °F (2001)
Degree Days  
Heating Degree Days 10    
Growing Degree Days 6 (Base 50)    
Moisture  
Dew Point 47 °F    
Average Humidity 72    
Maximum Humidity 88    
Minimum Humidity 35    
Precipitation  
Precipitation 0.00 in 0.06 in - ()
Sea Level Pressure  
Sea Level Pressure 29.75 in    
Wind  
Wind Speed 4 mph ()    
Max Wind Speed 13 mph    
Max Gust Speed -    
Visibility 8.6 miles    
Events      
Averages and records for this station are not official NWS values.
T = Trace of Precipitation, MM = Missing Value Source: Averaged Metar Reports

Daily Weather History Graph

Daily Weather History Graph

Search for Another Location

Airport or City:

Trip Planner

Search our weather history database for the weather conditions in past years. The results will help you decide how hot, cold, wet, or windy it might be!

Date:

Astronomy

Apr. 03, 2013 Rise Set
Actual Time 7:05 AM CEST 7:49 PM CEST
Civil Twilight 6:38 AM CEST 8:17 PM CEST
Nautical Twilight 6:06 AM CEST 8:49 PM CEST
Astronomical Twilight 5:33 AM CEST 9:22 PM CEST
Moon 2:30 AM CEST (4/3) 12:46 PM CEST (4/3)
Length of Visible Light 13h 38m
Length of Day
12h 44m
Waning Gibbous, 47% of the Moon is Illuminated
Apr 3
Waning Gibbous
Apr 10
New
Apr 18
First Quarter
Apr 25
Full
May 2
Last Quarter

Hourly Weather History & Observations

Time (CEST) Temp. Dew Point Humidity Pressure Visibility Wind Dir Wind Speed Gust Speed Precip Events Conditions
12:55 AM 51.8 °F 48.2 °F 88% 29.71 in 6.2 mi West 5.8 mph - N/A   Partly Cloudy
2:00 AM 50 °F 47 °F 88% 29.75 in 9 mi NW 3.5 mph - -   Scattered Clouds
2:55 AM 50.0 °F 46.4 °F 87% 29.74 in 6.2 mi NW 1.2 mph - N/A   Partly Cloudy
5:00 AM 48 °F 45 °F 84% 29.75 in 9 mi North 2.3 mph - -   Scattered Clouds
5:55 AM 50.0 °F 46.4 °F 87% 29.74 in 6.2 mi SSE 1.2 mph - N/A   Scattered Clouds
6:55 AM 51.8 °F 48.2 °F 88% 29.74 in 6.2 mi NW 1.2 mph - N/A   Scattered Clouds
7:55 AM 51.8 °F 46.4 °F 82% 29.74 in 6.2 mi North 1.2 mph - N/A   Partly Cloudy
8:00 AM 51 °F 46 °F 79% 29.76 in 7 mi North 1.2 mph - -   Scattered Clouds
8:55 AM 55.4 °F 48.2 °F 77% 29.77 in 6.2 mi Calm Calm - N/A   Partly Cloudy
9:55 AM 59.0 °F 50.0 °F 72% 29.74 in 6.2 mi NW 11.5 mph - N/A   Partly Cloudy
11:00 AM 61 °F 47 °F 49% 29.78 in 12 mi NW 8.1 mph - -   Scattered Clouds
1:55 PM 66.2 °F 44.6 °F 46% 29.77 in 6.2 mi NW 12.7 mph - N/A   Partly Cloudy
2:00 PM 65 °F 45 °F 37% 29.77 in 12 mi NW 12.7 mph - -   Scattered Clouds
5:00 PM 65 °F 44 °F 35% 29.76 in 16 mi NW 8.1 mph - -   Scattered Clouds
5:55 PM 64.4 °F 44.6 °F 49% 29.74 in 6.2 mi NNW 5.8 mph - N/A   Partly Cloudy
6:55 PM 62.6 °F 46.4 °F 55% 29.74 in - North 6.9 mph - N/A   Clear
7:55 PM 59.0 °F 48.2 °F 67% 29.74 in - North 1.2 mph - N/A   Clear
8:55 PM 55.4 °F 48.2 °F 77% 29.74 in - Calm Calm - N/A   Clear
9:55 PM 53.6 °F 50.0 °F 88% 29.74 in - ESE 3.5 mph - N/A   Clear
10:55 PM 51.8 °F 48.2 °F 88% 29.74 in - North 2.3 mph - N/A   Clear
11:00 PM 52 °F 49 °F 85% 29.75 in 16 mi North 2.3 mph - -